Regional Weather Roundup
Issued by NWS Little Rock, AR

Home | Current Version | Previous Version | Text Only | Print | Product List | Glossary On
Versions: 1 2 3 4 5 6 7 8 9 10 11 12 13 14 15 16 17 18 19 20 21 22 23 24 25 26 27 28 29 30 31 32 33 34 35 36 37 38 39 40 41 42 43 44 45 46 47 48 49 50
000
ASUS44 KLZK 201005
RWRLZK

WEATHER ROUNDUP FOR ARKANSAS
NATIONAL WEATHER SERVICE LITTLE ROCK AR
500 AM CDT MON OCT 20 2014

NOTE: "FAIR" INDICATES FEW OR NO CLOUDS BELOW 12,000 FEET WITH NO
SIGNIFICANT WEATHER AND/OR OBSTRUCTIONS TO VISIBILITY.

ARZ001-003-010-029-201100-
NORTHWEST ARKANSAS

CITY           SKY/WX    TMP DP  RH WIND       PRES   REMARKS
FAYETTEVILLE   CLOUDY    52  51  97 CALM      30.07F
FORT SMITH     CLEAR     54  51  90 NE3       30.05S
HARRISON       MOCLDY    52  51  97 CALM      30.06R
BENTONVILLE    CLOUDY    55  52  88 CALM      30.06F
ROGERS         LGT RAIN  55  52  89 S5        30.06F
SILOAM SPGS    CLOUDY    54  48  82 SE3       30.07S
HIGHFILL       CLOUDY    54  53  97 S5        30.05F
$$

ARZ004-005-016-201100-
NORTH CENTRAL ARKANSAS

CITY           SKY/WX    TMP DP  RH WIND       PRES   REMARKS
BATESVILLE     PTCLDY    50  46  87 CALM      30.06S
FLIPPIN        MOCLDY    52  45  76 CALM      30.05S
MTN HOME       CLOUDY    53  48  83 SW3       30.04S
$$

ARZ040-041-201100-
WEST CENTRAL ARKANSAS

CITY           SKY/WX    TMP DP  RH WIND       PRES   REMARKS
MENA           PTCLDY    50  48  93 CALM      30.07S
MOUNT IDA      PTCLDY    47  45  93 CALM      30.04F
$$

ARZ009-017-025-026-028-201100-
NORTHEAST ARKANSAS

CITY           SKY/WX    TMP DP  RH WIND       PRES   REMARKS
CORNING        FAIR      52  50  93 CALM      30.06S
JONESBORO      CLEAR     50  48  93 CALM      30.06S
NEWPORT        CLEAR     49  46  89 VRB5      30.08S
WALNUT RIDGE   PTCLDY    50  37  62 S5        30.06S
BLYTHEVILLE    PTCLDY    52  51  97 S3        30.07S
$$

ARZ022-023-033-042-044-201100-
CENTRAL ARKANSAS

CITY           SKY/WX    TMP DP  RH WIND       PRES   REMARKS
LITTLE ROCK    PTCLDY    50  46  86 CALM      30.07S
N LITTLE ROCK    N/A     55  50  82 SW5       30.07S
JACKSONVILLE   CLOUDY    47  46  94 MISG      30.06F
SEARCY         PTCLDY    47  46  97 CALM      30.08S
HOT SPRINGS    PTCLDY    48  46  93 CALM      30.07F
RUSSELLVILLE   PTCLDY    50  48  93 CALM      30.05F
$$

ARZ036-201100-
EAST ARKANSAS

CITY           SKY/WX    TMP DP  RH WIND       PRES   REMARKS
WEST MEMPHIS     N/A     46  46 100 CALM      30.06S FOG
$$

ARZ050-053-066-070-073-201100-
SOUTHWEST ARKANSAS

CITY           SKY/WX    TMP DP  RH WIND       PRES   REMARKS
ARKADELPHIA    FAIR      49  49 100 CALM      30.08S
CAMDEN         CLEAR     45  41  87 CALM      30.07S FOG
TEXARKANA      CLEAR     49  48  97 SE3       30.06S
EL DORADO      CLEAR     46  44  93 CALM      30.07S
DE QUEEN       FOG       48  48 100 CALM      30.06R VSB 1/4
$$

ARZ056-057-069-201100-
SOUTHEAST ARKANSAS

CITY           SKY/WX    TMP DP  RH WIND       PRES   REMARKS
PINE BLUFF     CLEAR     47  44  90 CALM      30.07S
STUTTGART      CLEAR     52  48  87 S5        30.07F
MONTICELLO     CLEAR     47  44  90 CALM      30.07S

$$





USA.gov is the U.S. government's official web portal to all federal, state and local government web resources and services.